Location: Ravencliff
(37.6982°N, 81.4812°W)
Time: 19:04:42
(UTC+00:00)

ACS3 Solar Sail - Pass Details

Date: 24 April 2026
Orbit: 894 x 947 km, 97.2° (Epoch: 12 May)

Event Time Altitude Azimuth Distance (km) Brightness Sun altitude
Rises 06:45:18 0° 8° (N) 3,557 5.7 -35.9°
Reaches altitude 10° 06:47:43 10° 6° (N) 2,619 4.7 -35.7°
Enters shadow 06:51:31 42° 353° (N) 1,300 2.7 -35.4°
